User: anonymous   Login
Location: Vancouver
(49.2500°N, 123.1330°W)
Time: 23:02:12
(UTC-07:00)
Language:

CZ-2C R/B - Orbit

View from above orbital plane
View from above orbital plane
View from above satellite
View from above satellite

Ground track
Ground track

The orbit data is extracted from the following two-line orbital elements,

1 28480U 04046B   16144.57282769  .00000050  00000-0  34959-4 0  9997
2 28480  98.1794 260.1058 0140907 294.6512 125.9029 14.25591133598727
Epoch (UTC): 23 May 2016 13:44:52
Eccentricity: 0.0140907
inclination: 98.1794°
perigee height: 705 km
apogee height: 908 km
right ascension of ascending node: 260.1058°
argument of perigee: 294.6512°
revolutions per day: 14.25591133
mean anomaly at epoch: 125.9029°
orbit number at epoch: 59872

The dashed part of the orbit path shows where the satellite is in the earth's shadow,  

DLR